User: anonymous   Login
Location: Gipe Farm
(40.9466°N, 95.5370°W)
Time: 14:14:44
(UTC-05:00)
Language:

Cosmos 1842 - Orbit

View from above orbital plane
View from above orbital plane
View from above satellite
View from above satellite

Ground track
Ground track

The orbit data is extracted from the following two-line orbital elements,

1 17911U 87038A   15144.40338310  .00002201  00000-0  13684-3 0  9992
2 17911 082.5051 210.7826 0010020 341.9714 018.1158 15.09127548527875
Epoch (UTC): 24 May 2015 09:40:52
Eccentricity: 0.0010020
inclination: 82.5051°
perigee height: 532 km
apogee height: 546 km
right ascension of ascending node: 210.7826°
argument of perigee: 341.9714°
revolutions per day: 15.09127548
mean anomaly at epoch: 18.1158°
orbit number at epoch: 52787

The dashed part of the orbit path shows where the satellite is in the earth's shadow,  

DLR